Simultaneous Nadir Overpasses (SNOs) Predictions

Prediction of SNOs between AQUA and NOAA-19 Satellite Orbit:

Table of predicted SNOs for the next 14.0 days since TLE Epoch: 8/26/2017
Index Date (AQUA) Time (AQUA) Lat,Lon (AQUA) SZA (AQUA ) Date (NOAA-19) Time (NOAA-19) Lat,Lon (NOAA-19) SZA (NOAA-19 ) Distance(km) Time Diff (sec)
1 08/28/2017 09:03:57 -80.95,-176.40 106.42 08/28/2017 09:03:32 -80.94,-176.54 106.40 2.56 25
2 08/28/2017 09:53:24 80.95, -8.81 73.61 08/28/2017 09:54:29 80.94, -8.64 73.56 3.05 65
3 08/30/2017 14:37:42 80.95, -79.90 74.37 08/30/2017 14:37:16 80.94, -79.88 74.37 1.40 26
4 08/30/2017 15:27:08 -80.95, 87.82 105.63 08/30/2017 15:28:18 -80.94, 87.88 105.67 1.09 70
5 09/01/2017 20:11:26 -80.95, 16.70 104.86 09/01/2017 20:11:05 -80.94, 16.81 104.86 2.24 21
6 09/01/2017 21:00:53 80.95,-175.71 75.17 09/01/2017 21:02:02 80.94,-175.72 75.13 1.29 69
7 09/04/2017 01:45:10 80.93, 113.50 75.91 09/04/2017 01:44:48 80.94, 113.36 75.94 2.52 22
8 09/04/2017 02:34:31 -80.79, -77.07 104.38 09/04/2017 02:35:45 -80.95, -76.61 104.33 18.96 74
9 09/06/2017 07:18:54 -80.93,-149.94 103.29 09/06/2017 07:18:38 -80.94,-149.99 103.27 1.21 16
10 09/06/2017 08:08:21 80.94, 17.64 76.73 09/06/2017 08:09:34 80.94, 17.48 76.72 2.95 73




NCC Satellite Simultaneous Nadir Overpasses (SNOs) Prediction Service
